Temperature
16 16 17 17 20 20 20 21 20 20 19 18 17 18 20 19 19 18 13 13 14 14 14 14 14 14 14 14 14 14 14 14 14 15 15 15 15 15 15 15 15 14 14 14 14 14 14 14 14
15 16 16 18 20 20 20 20 20 19 18 16 16 17 18 16 14 13 13 13 13 14 14 14 14 14 14 14 14 14 14 14 14 14 14 14 14 14 14 14 14 14 14 14 14 14 14 14 14
15 16 17 19 19 21 21 20 19 18 16 16 16 15 16 15 13 13 13 13 13 13 13 13 13 13 13 13 13 14 14 14 14 14 14 14 14 14 14 14 14 14 14 14 14 14 14 14 14
15 15 17 19 19 19 20 19 18 17 16 15 16 16 13 12 12 12 13 13 13 13 13 13 13 13 13 13 13 13 13 13 14 14 14 14 14 14 14 14 14 14 14 14 14 14 14 14 14
15 17 18 18 19 19 18 17 17 18 17 16 16 16 14 12 12 12 13 13 13 13 13 13 13 13 13 13 13 13 13 13 13 13 13 14 14 14 14 14 13 13 13 13 13 13 13 13 13
15 17 18 18 18 18 17 16 16 17 17 15 15 16 13 12 12 12 12 12 12 13 13 13 13 13 13 13 13 13 13 13 13 13 13 13 13 13 13 13 13 13 13 13 13 13 13 13 13
16 17 18 18 18 17 17 15 16 17 16 15 15 16 13 12 12 12 12 12 12 12 12 12 12 12 12 13 13 13 13 13 13 13 13 13 13 13 13 13 13 13 13 13 13 13 13 13 13
14 16 16 17 17 17 16 15 14 15 15 13 13 15 14 12 12 12 12 12 12 12 12 12 12 12 12 12 12 12 12 12 12 12 12 12 12 12 12 13 12 12 12 12 12 12 12 12 12
13 15 16 16 16 16 15 15 13 12 13 12 12 12 12 12 12 11 11 11 11 11 12 12 12 12 12 12 12 12 12 12 12 12 12 12 12 12 12 12 12 12 12 12 12 12 12 12 12
13 15 15 15 15 15 14 14 13 13 14 13 12 11 11 11 11 11 11 11 11 11 11 11 11 11 11 11 11 11 11 11 11 12 12 12 12 12 12 12 12 12 12 12 12 11 11 11 11
13 14 14 13 13 13 13 13 12 14 14 14 13 11 11 11 11 11 11 11 11 11 11 11 11 11 11 11 11 11 11 11 11 11 11 11 11 11 11 11 11 11 11 11 11 11 11 11 11
12 12 12 12 11 11 12 12 12 12 13 12 11 11 11 11 11 10 10 10 10 10 11 11 11 11 11 11 11 11 11 11 11 11 11 11 11 11 11 11 11 11 11 11 10 10 10 10 10
12 11 10 10 10 10 10 11 11 11 11 11 11 11 10 10 10 10 10 10 10 10 10 10 10 10 10 10 10 10 10 10 10 10 10 10 10 10 10 10 10 10 10 10 10 10 10 10 10
11 10 10 10 10 10 11 11 11 11 10 10 10 10 10 10 10 9 10 10 10 10 10 10 10 10 10 10 10 10 10 10 10 10 10 10 10 10 10 10 10 9 9 9 9 9 9 9 9
10 11 11 11 10 10 10 11 11 10 10 10 10 10 9 9 9 9 9 10 9 10 10 10 10 10 10 10 9 9 9 9 9 9 9 9 9 9 9 9 9 9 9 9 9 9 9 9 9
11 11 11 11 10 10 11 12 12 10 9 10 10 10 9 9 9 9 9 9 9 9 9 9 9 9 9 9 9 9 9 9 9 9 9 9 9 9 9 9 9 9 9 8 8 8 8 8 8
11 11 11 11 10 10 11 12 11 9 9 10 9 9 9 8 8 9 9 9 9 9 9 9 9 9 9 9 8 8 8 8 8 8 8 8 8 8 8 8 8 8 8 8 8 8 8 8 8
11 11 11 11 10 10 10 11 11 9 9 9 9 9 8 8 8 8 8 8 9 9 9 9 9 9 8 8 8 8 8 8 8 8 8 8 8 8 8 7 7 7 7 7 7 7 7 7 7
10 10 10 10 9 9 10 10 11 10 9 9 9 9 8 8 8 8 8 8 8 8 8 8 8 8 8 8 8 8 8 8 7 7 7 7 7 7 7 7 7 7 7 7 7 7 6 6 7
9 9 9 9 8 9 9 9 10 9 9 8 9 8 8 7 7 7 7 8 8 8 8 8 8 8 8 8 7 7 7 7 7 7 7 7 7 7 7 6 6 6 6 6 6 6 6 6 6
8 9 9 9 8 8 8 10 10 10 8 8 7 7 7 7 7 7 7 7 7 7 8 7 7 7 7 7 7 7 7 7 7 7 7 6 6 6 6 6 6 6 6 6 6 6 5 5 5
8 8 8 8 8 9 8 10 11 10 9 9 8 7 7 7 7 6 7 7 7 7 7 7 7 7 7 7 7 7 7 7 7 6 6 6 6 6 6 6 5 5 5 5 5 5 5 5 4
7 7 7 7 7 7 8 8 11 9 9 9 8 7 7 6 6 6 6 6 6 7 7 7 7 7 7 7 6 6 6 6 6 6 6 6 6 5 5 5 5 5 5 5 5 4 4 4 4
6 6 6 7 7 7 8 8 11 10 9 9 8 7 6 6 6 5 6 6 6 6 6 6 6 6 6 6 6 6 6 6 6 5 5 5 5 5 5 5 5 4 4 4 4 4 4 4 4
6 7 7 7 7 8 7 7 9 9 8 7 7 6 5 5 5 5 5 5 5 5 5 5 6 6 5 5 5 5 5 5 5 5 5 5 5 5 5 4 4 4 4 4 4 4 3 3 3
6 7 7 8 8 9 6 7 9 7 6 5 5 5 5 5 5 5 5 5 5 5 5 5 5 5 5 5 5 5 5 5 5 5 5 4 4 4 4 4 4 4 3 3 3 3 3 3 3
6 6 6 6 5 6 8 8 8 7 6 5 5 4 4 4 4 4 4 4 4 4 5 5 5 5 4 4 4 4 4 4 4 4 4 4 4 4 4 3 3 3 3 3 3 3 2 2 2
5 5 5 6 6 8 9 8 9 8 7 6 6 5 4 4 4 4 4 4 4 4 4 4 4 4 4 4 4 4 4 4 4 4 4 4 4 3 3 3 3 3 3 2 2 2 2 2 2
4 4 5 6 6 7 8 9 8 7 7 6 5 4 4 4 4 3 3 4 4 4 4 4 4 4 4 4 4 3 3 3 3 3 3 3 3 3 3 3 2 2 2 2 2 2 2 1 1
4 4 5 5 5 5 7 8 6 5 5 4 4 3 3 3 3 3 3 3 3 3 3 3 3 3 3 3 3 3 3 3 3 3 3 3 2 2 2 2 2 2 2 2 1 1 1 1 1
Wind_Speed
7 4 2 2 4 4 8 6 4 4 3 1 1 1 1 0 1 2 3 2 2 4 5 6 5 8 8 8 9 9 9 9 10 10 10 10 11 11 10 11 11 11 11 11 12 12 13 13 13
5 3 2 3 6 9 8 7 7 4 3 3 2 1 1 1 2 3 2 2 3 4 5 6 7 8 8 8 8 9 9 9 9 9 9 10 10 10 10 10 11 11 11 11 12 12 12 12 12
2 2 2 4 7 10 8 5 5 3 3 2 2 1 0 1 2 2 2 2 4 5 6 7 8 9 9 8 8 9 8 8 8 9 9 9 10 10 10 10 10 10 10 11 11 12 12 12 12
2 2 3 6 10 9 6 3 4 5 3 2 3 3 2 2 1 2 3 4 5 5 6 7 8 9 9 9 8 8 8 8 8 8 8 9 9 9 9 10 10 10 10 10 10 11 11 11 11
1 3 6 8 11 7 5 3 4 4 4 3 3 3 2 2 2 3 4 5 5 5 6 7 8 8 8 9 9 8 8 8 7 8 8 8 8 9 9 9 10 10 10 9 10 10 11 11 11
2 3 7 11 11 7 5 4 5 5 4 3 3 3 3 2 3 3 4 5 6 6 6 6 7 7 8 8 8 8 8 8 7 7 7 7 8 8 9 9 9 9 10 9 10 10 10 10 10
3 4 8 9 9 7 5 4 6 6 6 4 3 3 3 4 3 4 4 5 6 6 6 6 6 6 7 7 8 8 8 8 8 8 6 7 8 9 9 9 9 9 10 9 9 9 9 9 9
2 3 6 8 9 7 4 4 3 5 4 2 2 3 3 4 5 5 5 5 5 5 5 5 5 5 5 6 8 8 8 9 9 9 8 7 7 8 9 9 9 8 9 9 9 9 9 9 8
3 5 8 7 7 5 4 4 3 2 3 3 2 1 2 6 7 6 5 5 5 4 3 3 3 4 4 5 6 7 7 8 8 9 9 7 5 6 6 8 8 7 8 9 9 8 8 7 8
3 7 7 3 4 3 3 3 3 4 4 4 3 2 4 8 8 7 6 5 5 4 3 2 3 3 3 4 4 4 5 5 6 6 6 5 5 5 5 7 7 7 8 9 8 7 6 4 4
2 5 3 2 2 2 3 3 3 5 6 6 5 5 7 8 8 7 6 6 5 4 3 3 3 3 3 3 3 3 3 4 4 5 5 4 4 4 4 4 4 5 5 5 5 5 4 3 3
2 3 3 3 2 2 4 4 4 5 5 2 2 4 7 8 8 8 7 6 5 5 4 3 3 3 3 3 3 3 3 3 3 4 4 3 3 3 3 3 3 3 3 3 3 2 3 3 3
4 3 2 2 1 2 3 5 5 6 4 3 3 5 7 7 7 6 6 5 4 4 4 3 3 3 3 3 2 2 2 3 3 3 3 3 3 2 3 3 3 3 3 3 2 2 2 3 3
2 2 2 3 3 3 4 6 6 6 4 4 5 5 6 6 7 6 6 5 5 4 4 4 4 3 3 2 2 2 2 3 3 3 3 3 3 2 2 3 3 3 3 2 2 2 2 2 2
2 2 3 3 4 3 4 7 8 6 5 6 6 6 6 6 6 6 6 5 5 5 4 4 4 4 3 3 2 2 3 3 3 3 3 3 2 2 2 2 2 2 2 2 2 2 2 1 2
2 4 4 2 2 2 5 9 5 4 5 6 6 6 6 6 7 6 5 5 5 5 5 4 3 4 4 3 2 2 3 3 2 3 3 2 2 2 2 2 2 2 2 1 1 1 1 1 1
4 5 6 4 2 2 6 8 3 3 6 7 7 6 6 6 6 6 5 5 5 5 5 5 4 4 4 3 3 2 2 2 2 2 2 2 2 1 1 1 1 1 2 1 1 0 0 0 1
4 6 6 6 2 3 7 10 7 5 7 9 8 7 7 7 7 5 5 5 5 5 5 5 5 5 4 3 3 2 2 2 2 2 2 2 2 1 1 1 1 1 1 1 1 1 0 1 1
4 6 8 6 3 5 9 12 11 7 8 9 9 8 7 7 5 4 4 4 5 5 5 5 5 5 5 4 3 3 2 2 2 1 2 2 2 2 1 1 1 1 1 1 1 1 1 1 0
5 6 7 5 3 5 9 13 11 8 8 8 8 8 7 6 5 4 4 4 5 5 5 5 5 5 5 4 3 2 2 2 1 1 1 2 2 2 2 2 1 1 1 1 1 1 1 0 0
6 7 7 6 5 4 7 9 7 4 5 5 6 6 6 6 6 5 4 5 5 5 5 4 5 5 5 5 3 3 2 2 2 2 1 1 2 2 2 2 2 2 1 2 2 2 2 1 1
6 5 6 6 5 4 4 6 6 4 5 5 5 5 5 5 5 4 4 5 5 4 4 4 4 4 4 4 5 5 4 4 3 2 2 2 2 2 2 2 2 2 2 2 2 2 2 3 2
3 1 3 4 4 5 5 6 6 3 6 4 3 3 3 3 3 3 4 4 4 4 4 4 4 4 4 4 5 5 5 3 3 3 3 2 2 3 3 3 3 3 3 3 3 3 3 3 3
1 1 1 2 3 6 6 7 6 4 5 3 3 2 3 3 3 2 2 2 2 3 3 4 4 3 3 4 4 5 5 5 4 4 3 2 2 3 3 4 4 3 3 3 3 3 3 3 3
2 2 2 2 3 5 2 6 7 3 3 4 4 3 3 2 2 2 2 2 2 2 3 4 4 4 4 4 4 5 5 5 5 4 4 3 3 3 4 4 4 4 4 3 3 3 4 4 4
4 4 3 4 5 4 3 7 4 2 3 3 3 3 2 2 2 2 2 2 2 2 3 3 4 4 4 4 4 4 5 4 4 4 4 4 3 4 4 5 5 5 5 4 4 3 4 4 4
3 4 2 2 3 6 6 5 6 4 4 3 3 2 2 2 2 1 2 2 2 2 2 3 4 4 4 4 5 4 4 4 4 5 4 3 3 3 4 5 5 5 5 5 4 4 4 4 4
2 2 3 3 4 6 6 6 5 4 4 3 2 2 3 3 2 1 2 2 2 3 2 2 4 4 4 4 4 3 4 4 4 4 5 4 4 4 4 4 4 4 4 4 4 4 4 5 4
3 3 4 3 4 4 6 4 1 3 3 3 3 4 4 4 3 2 2 2 2 2 2 2 3 3 3 3 3 4 3 3 3 3 4 4 4 4 4 4 4 4 4 4 4 4 4 5 4
4 5 5 5 5 5 6 6 0 3 3 4 5 5 4 3 3 2 2 2 2 2 2 2 2 3 3 3 3 3 3 3 4 4 4 3 4 3 4 4 4 4 4 4 5 4 4 5 5
Wind_Direction
328 319 279 235 213 218 231 220 210 184 174 144 95 203 195 207 299 71 72 92 111 133 136 130 107 106 103 101 99 93 90 90 94 95 93 94 93 91 87 83 81 81 81 81 82 82 82 81 81
324 308 234 222 228 224 224 216 206 194 146 136 129 182 160 100 40 73 102 93 123 125 124 117 104 105 103 98 99 97 93 92 92 93 94 92 92 90 87 86 83 83 85 82 82 83 83 82 81
310 289 228 210 226 231 220 195 196 166 155 183 160 104 51 86 85 95 79 119 129 120 119 111 103 101 97 95 94 97 96 96 95 93 92 92 92 87 85 85 84 84 84 84 85 88 88 85 84
261 199 216 225 226 232 229 184 171 174 170 179 175 134 117 51 30 76 103 131 129 116 114 111 100 100 97 93 91 92 95 96 95 92 91 90 91 87 83 82 82 82 83 85 86 86 88 87 86
254 213 209 222 231 231 225 221 200 204 195 183 192 168 145 98 83 105 125 131 126 115 109 108 96 96 95 94 91 89 91 92 96 96 96 92 91 90 87 83 82 84 84 85 86 85 84 83 84
199 216 220 225 224 222 223 216 206 214 203 187 194 181 152 125 127 123 127 128 120 115 109 110 99 95 94 93 89 87 87 87 90 95 100 98 94 92 88 87 86 86 86 84 86 86 81 81 79
223 218 232 230 224 222 219 209 216 213 210 205 212 189 160 159 135 127 125 122 115 113 113 111 113 105 98 95 88 85 83 85 84 83 93 99 96 93 88 86 86 86 85 83 83 83 82 79 79
244 213 226 225 223 227 202 196 222 230 218 202 226 205 175 163 139 132 126 118 114 110 111 109 114 113 113 109 91 84 84 84 85 77 77 91 95 96 91 86 81 87 86 84 82 83 81 79 78
227 221 225 221 219 214 185 200 206 238 199 197 221 268 73 131 141 139 135 128 122 117 113 112 113 114 115 112 102 94 88 85 88 83 79 89 96 96 94 79 79 84 87 88 85 82 81 79 79
217 226 229 235 226 202 193 217 205 196 203 208 195 159 134 148 155 159 161 160 156 154 143 126 117 112 115 109 112 105 95 91 90 89 88 84 87 83 82 82 78 82 88 90 85 84 86 79 79
220 232 227 230 229 213 213 232 229 219 229 226 209 178 161 167 172 177 179 179 176 173 159 148 136 123 114 108 110 101 97 92 88 84 83 86 85 87 81 83 81 81 86 84 86 89 79 70 64
219 247 248 249 264 251 239 232 238 242 245 270 226 181 176 182 188 190 192 192 182 174 168 157 147 140 131 119 110 107 106 100 88 82 76 83 83 81 81 76 71 65 70 70 71 71 83 78 71
221 236 253 263 286 272 247 242 248 249 249 245 214 193 194 196 200 199 199 194 189 181 175 172 162 154 145 134 119 108 103 95 91 83 74 70 83 86 83 72 67 62 61 64 59 54 73 78 67
194 210 256 280 272 265 249 258 245 243 234 222 212 210 209 209 206 201 200 196 194 190 183 178 170 162 153 140 133 127 117 108 99 87 75 73 75 81 85 84 69 60 56 54 56 50 55 63 56
187 231 267 270 260 260 256 255 240 235 224 226 226 225 224 220 212 212 208 203 203 196 186 180 175 162 153 144 138 129 125 123 114 100 93 86 79 84 82 83 79 64 63 66 66 58 47 64 58
220 231 244 239 258 250 242 253 228 210 224 236 241 240 235 231 225 221 218 212 206 199 187 179 169 165 158 149 139 130 128 128 123 116 113 106 96 95 103 95 84 71 74 75 84 72 62 71 58
216 238 248 250 246 261 240 258 241 232 240 251 254 248 242 237 233 226 221 215 206 199 189 179 173 170 163 152 145 133 126 125 128 127 123 118 116 124 131 117 98 103 93 82 91 103 83 15 9
239 247 251 250 258 273 260 261 265 260 255 258 258 251 244 238 234 229 224 216 203 196 191 184 175 173 163 153 150 142 137 131 129 128 131 137 141 154 152 134 124 126 124 106 99 102 78 46 353
262 256 260 270 294 278 267 271 271 265 257 254 252 250 246 246 242 228 221 211 198 189 188 187 180 175 170 167 171 176 179 170 154 138 142 156 161 166 170 158 148 152 155 150 146 130 133 69 9
241 254 264 277 293 283 282 277 270 258 250 252 251 249 248 249 243 229 218 205 202 197 195 192 188 183 186 187 185 192 183 177 165 143 152 174 179 178 184 184 170 173 176 172 164 159 198 197 244
245 249 262 277 299 266 287 272 247 239 235 246 248 251 248 244 239 228 217 207 202 203 202 201 197 188 191 187 176 159 156 159 172 180 191 195 193 190 195 198 186 176 186 194 193 199 212 232 245
254 254 257 264 275 276 289 281 254 244 249 248 246 242 243 242 235 226 215 211 208 206 201 204 199 189 183 181 189 187 193 198 204 196 198 193 192 198 206 208 204 193 197 208 205 209 222 224 233
258 291 255 257 256 272 253 258 263 237 247 248 250 246 246 247 235 226 215 209 206 198 193 194 192 186 183 189 195 200 201 202 189 184 190 196 195 203 206 213 212 211 211 213 210 214 221 227 235
184 240 257 236 236 253 243 240 263 231 237 250 261 277 277 269 254 240 221 196 184 186 185 180 179 178 183 192 199 202 201 198 194 196 194 203 208 210 215 218 219 218 217 215 217 217 223 232 236
214 228 246 229 229 247 212 238 255 257 253 256 269 291 297 282 260 247 230 203 184 179 190 187 184 188 192 197 206 208 210 209 208 210 208 210 217 220 218 215 221 221 221 220 218 218 224 230 232
220 228 239 256 261 270 229 244 256 269 271 272 272 288 305 296 268 244 232 213 204 201 207 200 195 198 196 200 210 212 214 219 220 219 221 223 226 227 221 215 220 222 221 219 217 219 224 227 228
203 220 271 262 275 271 251 258 271 237 237 244 253 275 295 309 293 252 229 221 220 217 217 215 207 211 210 208 210 216 218 224 230 229 225 228 228 224 221 216 217 219 218 217 213 220 221 221 226
273 197 192 221 253 263 265 259 253 223 226 227 243 271 289 298 299 269 236 229 231 233 233 219 211 216 219 216 215 220 226 230 235 234 228 226 223 217 216 221 219 214 215 215 214 220 221 220 226
196 198 217 224 261 265 277 264 239 240 238 248 273 285 288 284 282 275 250 236 235 236 234 231 221 213 218 219 218 225 232 234 233 234 235 228 223 216 214 218 221 220 217 212 212 218 218 222 227
239 224 209 231 241 249 271 274 86 263 273 276 287 297 296 288 286 281 271 251 242 244 247 247 240 231 223 221 223 227 232 232 233 235 241 234 228 222 217 215 218 221 220 214 214 218 222 225 227
Height
1518 1518 1520 1522 1521 1517 1515 1513 1514 1516 1518 1522 1523 1522 1520 1521 1523 1529 1530 1528 1529 1530 1531 1533 1534 1535 1535 1535 1536 1536 1536 1536 1536 1535 1535 1535 1535 1535 1536 1536 1536 1536 1536 1535 1535 1535 1534 1534 1534
1518 1519 1521 1521 1516 1515 1513 1512 1515 1516 1520 1523 1523 1524 1523 1525 1527 1528 1527 1528 1529 1530 1531 1532 1534 1535 1535 1536 1536 1536 1536 1536 1536 1536 1536 1536 1536 1536 1536 1537 1537 1537 1537 1536 1536 1535 1535 1535 1536
1518 1519 1521 1517 1513 1509 1509 1512 1515 1519 1522 1523 1523 1524 1525 1526 1527 1527 1527 1528 1530 1531 1532 1532 1534 1535 1535 1536 1536 1536 1537 1537 1537 1537 1537 1537 1537 1537 1537 1537 1537 1537 1537 1537 1537 1536 1536 1536 1536
1519 1521 1520 1516 1512 1510 1510 1514 1517 1519 1522 1523 1523 1524 1526 1527 1527 1527 1527 1528 1530 1531 1532 1532 1533 1534 1535 1536 1536 1536 1537 1537 1537 1537 1537 1537 1537 1537 1537 1538 1538 1538 1538 1538 1538 1537 1537 1537 1537
1519 1519 1516 1513 1510 1511 1514 1517 1518 1518 1520 1522 1523 1523 1526 1526 1526 1526 1527 1529 1530 1531 1532 1533 1533 1534 1535 1536 1536 1536 1537 1537 1537 1537 1537 1537 1537 1537 1538 1538 1538 1538 1538 1538 1538 1538 1538 1538 1538
1520 1517 1512 1509 1508 1512 1516 1518 1519 1519 1520 1522 1523 1523 1525 1526 1526 1527 1528 1529 1530 1531 1532 1533 1533 1534 1535 1535 1536 1536 1536 1537 1537 1537 1537 1537 1537 1537 1538 1538 1538 1538 1538 1538 1538 1538 1538 1538 1538
1519 1515 1509 1507 1509 1511 1515 1518 1518 1518 1519 1522 1523 1523 1525 1525 1526 1527 1528 1529 1530 1530 1531 1532 1533 1534 1535 1535 1535 1536 1536 1536 1536 1536 1536 1537 1537 1537 1538 1538 1538 1538 1538 1538 1538 1538 1538 1538 1538
1518 1516 1512 1510 1510 1511 1516 1518 1519 1519 1519 1522 1523 1522 1524 1525 1525 1526 1528 1528 1529 1530 1531 1532 1533 1533 1534 1534 1535 1535 1535 1536 1536 1536 1536 1536 1536 1537 1537 1537 1538 1538 1538 1538 1537 1538 1538 1538 1538
1518 1517 1511 1510 1510 1512 1516 1517 1519 1520 1520 1521 1521 1522 1523 1523 1524 1526 1527 1528 1529 1529 1530 1531 1532 1533 1533 1534 1534 1535 1535 1535 1535 1535 1535 1536 1536 1536 1537 1537 1537 1537 1537 1537 1537 1537 1537 1538 1538
1517 1512 1510 1513 1513 1514 1517 1517 1519 1519 1519 1520 1521 1521 1522 1523 1524 1525 1526 1527 1527 1528 1529 1530 1531 1532 1532 1533 1533 1534 1534 1534 1534 1534 1535 1535 1536 1536 1536 1536 1537 1537 1537 1536 1537 1537 1537 1537 1537
1516 1513 1514 1515 1516 1516 1517 1518 1519 1518 1517 1518 1519 1520 1521 1522 1523 1524 1525 1526 1526 1527 1528 1528 1529 1530 1531 1532 1532 1532 1532 1533 1533 1533 1534 1534 1534 1535 1535 1535 1535 1536 1535 1536 1536 1536 1536 1536 1536
1517 1516 1517 1517 1517 1517 1517 1517 1518 1517 1517 1518 1518 1519 1520 1521 1521 1523 1524 1525 1525 1526 1526 1527 1528 1529 1530 1530 1531 1531 1531 1532 1532 1532 1533 1533 1533 1534 1534 1534 1534 1534 1534 1535 1535 1535 1535 1535 1535
1516 1517 1518 1517 1517 1517 1517 1517 1516 1516 1516 1516 1517 1517 1518 1519 1520 1521 1522 1523 1523 1524 1525 1526 1526 1527 1528 1529 1529 1529 1529 1530 1530 1531 1531 1532 1532 1532 1533 1533 1533 1533 1533 1533 1534 1534 1534 1534 1534
1516 1517 1517 1517 1517 1517 1516 1515 1516 1514 1515 1515 1516 1516 1517 1518 1518 1519 1520 1521 1522 1522 1523 1524 1525 1525 1526 1527 1528 1528 1529 1529 1529 1530 1530 1530 1531 1531 1531 1531 1531 1532 1532 1532 1532 1532 1533 1533 1533
1517 1516 1515 1516 1516 1516 1516 1513 1512 1513 1513 1513 1514 1514 1515 1515 1516 1517 1517 1519 1520 1520 1521 1522 1523 1524 1524 1525 1526 1527 1527 1528 1528 1528 1529 1529 1529 1530 1530 1530 1530 1530 1530 1531 1531 1531 1531 1531 1531
1516 1514 1512 1513 1515 1515 1517 1508 1509 1511 1512 1512 1512 1512 1513 1513 1514 1514 1515 1516 1517 1518 1519 1520 1520 1521 1522 1523 1524 1525 1525 1526 1526 1527 1527 1528 1528 1528 1528 1528 1528 1528 1529 1529 1529 1529 1530 1530 1529
1512 1510 1509 1511 1514 1514 1512 1506 1508 1510 1510 1510 1510 1510 1510 1510 1511 1512 1513 1514 1515 1516 1516 1517 1518 1519 1520 1521 1522 1523 1523 1524 1525 1525 1525 1526 1526 1526 1527 1527 1527 1527 1527 1527 1527 1527 1527 1527 1527
1509 1508 1508 1509 1512 1513 1510 1506 1506 1508 1508 1508 1507 1507 1507 1508 1508 1509 1510 1511 1512 1513 1514 1515 1516 1517 1518 1519 1520 1521 1521 1522 1522 1523 1523 1523 1524 1524 1524 1525 1525 1525 1525 1525 1525 1525 1525 1525 1525
1512 1511 1508 1509 1513 1513 1508 1505 1504 1505 1506 1505 1504 1504 1504 1505 1506 1507 1507 1508 1509 1510 1511 1512 1513 1514 1515 1516 1517 1518 1519 1519 1520 1521 1521 1521 1521 1522 1522 1522 1522 1523 1523 1523 1523 1523 1523 1523 1523
1514 1512 1510 1511 1514 1512 1507 1503 1500 1501 1502 1502 1501 1501 1502 1502 1503 1503 1504 1505 1505 1507 1508 1509 1510 1511 1512 1513 1514 1515 1516 1517 1517 1518 1518 1519 1519 1519 1520 1520 1520 1520 1521 1521 1521 1521 1521 1521 1521
1512 1511 1509 1511 1512 1511 1508 1496 1495 1497 1498 1499 1499 1499 1499 1500 1500 1501 1501 1501 1502 1503 1505 1506 1507 1508 1509 1511 1512 1513 1514 1514 1515 1515 1516 1516 1516 1517 1517 1517 1518 1518 1518 1518 1518 1518 1519 1519 1519
1510 1512 1512 1512 1510 1504 1508 1495 1487 1492 1494 1495 1496 1496 1497 1497 1498 1498 1498 1499 1500 1501 1502 1503 1504 1505 1506 1507 1509 1509 1510 1511 1511 1512 1513 1513 1513 1514 1514 1514 1515 1515 1515 1515 1515 1515 1516 1516 1516
1512 1514 1513 1511 1510 1509 1506 1503 1485 1490 1490 1491 1493 1494 1494 1495 1495 1495 1495 1496 1497 1498 1499 1500 1501 1502 1503 1504 1505 1506 1507 1508 1509 1509 1510 1510 1510 1510 1511 1511 1511 1512 1512 1512 1512 1512 1513 1513 1513
1516 1515 1514 1512 1509 1509 1502 1499 1482 1484 1487 1489 1491 1492 1493 1493 1493 1493 1493 1494 1494 1495 1496 1497 1498 1499 1500 1501 1502 1503 1504 1505 1505 1506 1506 1506 1507 1507 1507 1508 1508 1508 1509 1509 1509 1509 1509 1510 1510
1514 1512 1508 1505 1504 1496 1502 1499 1486 1485 1488 1489 1490 1491 1491 1491 1491 1491 1491 1491 1492 1492 1494 1495 1496 1496 1497 1498 1499 1500 1501 1501 1502 1502 1502 1503 1503 1504 1504 1504 1504 1505 1505 1505 1506 1506 1506 1506 1506
1512 1509 1506 1501 1494 1489 1502 1494 1483 1488 1489 1490 1490 1490 1489 1489 1489 1489 1489 1489 1490 1490 1491 1492 1493 1494 1494 1495 1496 1496 1497 1498 1498 1499 1499 1499 1500 1500 1500 1500 1501 1501 1501 1502 1502 1502 1502 1503 1503
1511 1509 1510 1508 1510 1502 1487 1487 1486 1487 1488 1488 1488 1488 1488 1488 1487 1487 1487 1488 1488 1488 1489 1490 1490 1491 1492 1492 1493 1493 1493 1494 1495 1495 1495 1496 1496 1496 1497 1497 1497 1497 1497 1498 1498 1498 1498 1499 1499
1513 1511 1511 1508 1501 1490 1482 1482 1477 1481 1483 1485 1486 1487 1487 1486 1486 1486 1486 1486 1486 1487 1487 1487 1488 1488 1489 1489 1489 1490 1490 1491 1491 1491 1492 1492 1492 1493 1493 1493 1493 1493 1493 1494 1494 1494 1495 1495 1495
1513 1513 1509 1506 1504 1493 1484 1478 1479 1481 1482 1484 1485 1486 1485 1485 1485 1484 1484 1484 1484 1484 1485 1485 1485 1486 1486 1486 1487 1487 1487 1487 1488 1488 1488 1488 1488 1488 1489 1489 1489 1490 1490 1490 1490 1490 1491 1491 1491
1511 1508 1508 1505 1504 1502 1490 1482 1482 1483 1484 1485 1485 1484 1484 1483 1483 1483 1482 1482 1482 1482 1482 1482 1482 1483 1483 1483 1483 1484 1483 1484 1484 1484 1484 1484 1484 1485 1485 1486 1486 1486 1486 1486 1486 1486 1487 1487 1487